Wind_Speed
35 33 33 32 32 31 31 31 30 30 29 29 29 29 29 28 26 26 25 25 24 22 22 21 21 20 20 19 18 18 17 18 18 17 17 17 17 17 16 16 16 16 16
37 36 35 34 32 32 32 31 31 30 30 30 30 30 29 29 28 27 27 26 25 24 24 23 22 22 21 21 20 19 19 19 19 19 19 19 18 18 18 18 18 18 18
37 37 36 35 34 33 33 32 32 32 32 31 31 31 31 31 29 28 28 27 26 26 25 25 24 24 23 23 22 21 20 20 20 20 20 20 20 20 20 19 19 19 19
38 38 37 36 35 34 34 33 33 33 34 33 32 32 32 33 31 30 29 29 28 27 27 26 26 26 25 25 24 24 23 22 22 21 21 21 22 21 21 21 21 21 21
39 39 38 38 37 36 35 35 35 34 34 33 33 32 33 33 34 32 32 31 30 30 29 29 28 27 27 27 27 26 25 24 24 24 23 23 23 23 23 23 23 22 22
40 39 39 38 38 38 37 37 36 35 35 34 34 34 33 34 34 34 34 33 31 31 31 31 30 30 29 29 29 28 27 27 26 26 25 25 24 24 24 24 24 24 24
42 40 40 39 39 39 38 37 36 36 36 35 36 36 35 35 35 35 35 34 33 33 33 32 32 32 31 31 31 30 29 29 29 28 28 27 26 25 26 26 26 25 25
42 41 40 40 40 39 39 38 37 38 37 37 36 36 37 37 36 35 36 36 35 34 34 34 33 33 33 33 33 33 32 31 31 30 30 29 29 28 27 27 27 27 27
42 42 41 40 41 41 41 40 40 39 39 39 38 37 37 37 36 37 37 37 37 36 36 36 35 35 35 35 35 34 34 32 32 32 31 31 30 30 29 29 28 29 28
43 42 42 40 40 41 42 41 41 40 40 40 39 39 39 39 39 38 37 38 38 38 37 37 37 37 37 37 36 36 35 34 34 33 33 32 31 31 31 31 30 30 30
44 44 43 42 40 41 42 42 42 41 41 41 41 41 41 41 41 41 39 39 39 39 39 39 39 39 39 38 38 37 37 37 36 36 35 34 33 33 33 33 33 32 31
45 46 45 43 42 42 42 42 42 42 42 42 42 42 43 43 43 43 42 42 41 40 40 40 40 40 39 39 39 39 38 38 38 38 37 37 36 35 34 34 34 34 34
46 46 45 45 44 43 43 43 42 42 42 42 42 42 43 44 44 44 44 44 43 42 41 41 41 41 41 40 40 40 40 39 39 39 39 39 38 37 36 36 36 36 35
45 45 45 45 44 44 44 43 43 43 43 44 43 43 43 44 44 44 44 44 44 43 43 42 42 42 42 42 42 42 41 41 41 41 40 40 40 39 38 38 38 38 38
46 45 46 46 44 43 43 43 44 45 45 46 45 45 44 44 44 44 44 44 44 43 43 43 43 43 43 43 43 42 42 42 42 42 41 41 42 41 41 41 41 41 40
46 46 47 46 46 45 43 44 44 45 47 47 47 47 46 47 47 47 46 45 45 45 44 44 44 44 44 44 44 43 43 42 43 43 43 44 44 43 43 42 42 42 42
46 45 45 45 45 45 45 44 44 44 45 46 47 47 46 47 47 47 47 46 46 46 46 45 45 45 44 44 44 45 44 44 44 43 44 45 45 45 45 44 44 43 43
46 45 45 45 45 45 45 44 43 43 43 44 46 46 46 47 48 48 47 47 48 48 48 47 46 46 45 45 45 45 45 45 45 45 45 45 45 46 46 45 45 44 44
46 46 46 46 46 45 45 44 44 43 44 45 46 47 47 47 47 47 48 48 48 48 49 49 48 48 48 47 47 47 47 47 47 46 47 47 46 46 46 46 46 46 46
44 46 46 46 46 46 46 45 45 45 45 46 47 47 47 47 47 47 48 48 48 49 49 49 49 49 49 48 48 49 49 49 48 48 48 47 47 47 48 48 47 47 47
44 44 45 46 46 46 46 46 45 45 45 46 47 47 46 46 47 47 48 47 48 48 49 49 49 49 49 50 50 50 50 50 50 50 50 49 48 48 48 48 47 48 48
44 45 45 45 46 46 46 46 46 46 45 44 46 46 46 46 45 46 46 46 47 46 46 47 47 48 48 49 50 50 51 51 51 51 51 51 50 50 49 49 48 48 49
45 45 45 45 45 45 46 46 45 44 44 44 45 45 46 45 45 45 45 45 45 45 46 46 46 47 48 48 49 50 51 51 50 50 51 52 52 51 51 51 50 50 50
44 44 44 44 44 44 44 44 44 43 43 44 45 45 45 45 46 45 45 45 45 45 44 45 46 46 47 48 49 49 49 49 49 49 49 50 51 52 52 52 52 52 50
43 43 44 44 43 44 44 43 43 42 42 43 43 44 45 46 46 46 46 45 45 45 45 45 45 46 47 47 48 48 48 48 48 48 49 49 50 50 51 51 51 52 52
42 42 42 43 43 44 44 44 43 42 42 43 43 42 43 44 46 46 46 46 45 45 46 47 47 47 47 47 48 48 48 48 48 48 49 49 49 50 50 50 51 51 52
Wind_Direction
247 245 246 247 247 248 248 250 250 249 249 249 249 249 249 248 249 251 254 257 258 261 263 263 263 265 266 267 267 269 272 275 276 278 281 285 287 290 292 294 295 296 296
246 246 246 246 247 247 246 247 249 249 249 249 249 248 248 249 249 251 253 255 257 260 261 261 262 263 264 265 266 269 272 276 276 276 278 282 285 287 289 290 293 294 295
245 246 246 246 245 245 246 248 249 249 250 250 249 248 248 248 249 249 252 254 257 259 259 260 262 263 264 265 266 268 272 276 278 277 277 279 282 284 286 288 289 292 293
245 245 244 244 244 245 246 248 249 250 250 250 250 250 249 249 248 249 251 254 255 258 258 259 261 262 263 264 265 268 272 275 276 277 278 278 279 281 284 285 287 289 291
245 246 245 244 245 245 246 248 248 249 249 249 250 251 250 249 249 250 251 254 256 257 257 258 260 261 262 263 264 267 270 272 274 275 277 278 279 279 280 283 284 286 288
245 246 246 246 246 246 246 247 248 248 249 249 249 250 250 249 251 252 252 253 255 257 258 258 259 260 262 263 264 266 268 268 271 273 275 276 278 278 279 281 281 283 286
246 246 246 246 247 247 247 247 247 247 248 249 250 250 250 250 251 252 252 254 255 255 257 257 259 259 260 261 263 265 267 268 269 271 273 274 276 278 279 279 280 282 284
246 247 246 247 247 248 247 247 247 248 249 249 250 251 250 250 250 252 253 254 254 254 255 256 257 258 259 261 263 265 266 267 268 269 271 272 274 276 278 278 278 280 282
244 246 247 248 248 248 248 248 248 248 249 250 251 252 251 249 250 252 254 253 254 255 256 256 257 257 258 260 262 264 264 266 267 269 270 271 272 274 275 278 279 279 280
245 245 246 248 249 248 248 248 250 250 250 250 251 251 250 250 249 251 252 254 255 255 256 256 256 257 259 259 260 262 262 263 265 267 268 270 271 273 274 276 277 279 279
245 244 245 247 247 248 248 248 250 251 250 250 251 252 251 251 251 252 252 253 254 255 257 257 257 257 258 259 260 261 262 263 265 266 267 268 270 272 274 275 276 277 279
246 245 246 246 247 247 248 249 251 251 251 252 252 253 252 252 253 253 253 253 253 254 255 257 258 258 259 260 260 261 262 263 265 266 267 267 268 270 272 274 275 277 278
247 246 246 246 247 248 249 249 249 250 251 252 252 253 254 254 254 255 255 254 254 254 255 255 257 258 259 260 261 261 262 263 264 266 266 267 267 268 270 272 274 275 276
246 245 245 247 248 248 249 249 250 250 250 251 251 253 254 254 254 254 254 255 254 254 255 256 257 258 257 259 260 262 262 263 264 265 265 265 266 268 270 272 272 273 274
246 245 247 248 248 249 250 251 252 252 252 252 251 252 253 253 253 253 254 255 256 256 256 256 257 258 257 258 259 260 262 263 264 264 264 264 265 268 269 270 271 272 273
246 246 247 247 248 249 251 252 253 254 253 252 252 252 253 254 254 256 257 256 256 257 257 257 257 257 259 258 259 259 261 263 264 265 264 265 266 268 269 269 270 272 274
246 246 245 247 248 249 251 252 254 255 254 253 252 253 254 255 256 256 256 256 257 257 257 256 257 257 258 258 258 259 261 262 263 265 266 266 267 267 268 268 269 270 272
247 246 246 247 249 250 250 252 253 255 256 254 253 254 255 256 257 257 256 256 257 257 257 257 256 257 258 258 258 259 261 262 263 265 266 266 267 267 267 267 268 270 271
249 248 248 249 249 249 250 253 254 256 257 255 254 254 255 256 256 256 256 256 257 257 258 258 257 257 257 258 259 260 261 262 263 265 265 266 267 268 267 267 268 269 271
249 249 249 249 249 250 251 253 256 256 256 255 254 255 256 255 255 256 257 257 257 258 259 259 258 258 258 259 260 261 261 262 263 264 266 267 267 268 268 268 268 269 271
249 248 248 248 249 250 252 254 254 255 256 255 254 255 255 256 257 257 258 258 259 259 259 259 259 260 260 261 262 262 262 262 263 265 265 266 267 268 268 268 268 269 270
249 248 248 249 250 250 251 252 254 254 256 255 255 255 256 256 257 258 258 258 259 259 260 260 261 261 262 263 263 264 264 264 265 265 266 265 267 268 268 268 268 268 270
251 249 249 250 250 250 250 252 254 253 254 254 254 256 256 257 257 257 257 258 258 259 260 261 262 263 263 263 264 265 266 266 266 266 266 266 267 268 268 268 269 268 269
252 252 250 250 249 250 249 251 253 253 254 254 253 255 256 256 257 257 257 257 259 260 260 261 263 265 265 265 266 266 266 266 266 267 268 269 268 268 268 268 269 269 269
253 252 250 250 249 250 250 250 252 252 252 252 253 254 255 257 257 258 258 259 260 261 262 263 264 265 265 265 266 266 266 266 267 268 268 270 269 268 267 268 268 269 269
254 252 252 251 251 252 252 253 253 253 253 253 253 254 256 257 258 259 260 260 260 262 263 264 264 264 264 265 265 266 267 268 268 269 269 270 269 268 267 268 269 269 269
Height
5778 5781 5783 5786 5788 5790 5792 5794 5797 5799 5801 5804 5806 5809 5811 5814 5816 5818 5819 5820 5822 5823 5824 5825 5825 5826 5827 5827 5828 5828 5828 5828 5828 5828 5828 5828 5827 5827 5826 5825 5824 5823 5822
5769 5772 5775 5777 5780 5783 5785 5787 5790 5792 5795 5797 5799 5802 5805 5807 5809 5811 5813 5815 5816 5818 5819 5820 5820 5821 5822 5822 5823 5823 5824 5824 5824 5824 5824 5824 5823 5822 5822 5821 5820 5819 5818
5761 5764 5766 5769 5772 5775 5778 5780 5782 5785 5787 5790 5792 5795 5797 5800 5802 5804 5806 5808 5810 5812 5813 5814 5815 5816 5816 5817 5818 5818 5819 5819 5819 5819 5819 5819 5818 5818 5817 5817 5816 5815 5814
5751 5754 5758 5760 5763 5766 5769 5772 5775 5777 5780 5782 5785 5787 5790 5792 5795 5797 5799 5801 5803 5805 5807 5808 5809 5810 5811 5811 5812 5813 5813 5814 5814 5814 5814 5814 5813 5813 5813 5812 5811 5810 5809
5742 5745 5749 5752 5755 5758 5761 5764 5766 5769 5772 5774 5777 5779 5781 5784 5787 5789 5792 5794 5796 5798 5800 5801 5802 5804 5804 5805 5806 5807 5808 5808 5808 5808 5808 5808 5808 5807 5807 5806 5806 5805 5804
5732 5736 5739 5743 5746 5749 5752 5755 5758 5761 5763 5766 5768 5771 5773 5776 5778 5781 5784 5786 5788 5790 5792 5794 5795 5797 5797 5798 5799 5800 5801 5802 5802 5802 5802 5802 5802 5802 5801 5801 5800 5799 5798
5723 5726 5730 5733 5737 5740 5743 5746 5749 5752 5755 5757 5760 5762 5765 5767 5770 5773 5775 5778 5780 5782 5784 5786 5787 5789 5790 5791 5792 5793 5794 5794 5795 5795 5795 5795 5796 5796 5795 5795 5794 5793 5792
5713 5717 5721 5724 5728 5731 5734 5737 5740 5743 5745 5748 5751 5753 5755 5759 5761 5764 5766 5769 5771 5773 5775 5777 5779 5780 5781 5783 5784 5785 5786 5787 5787 5788 5788 5788 5789 5789 5788 5788 5787 5787 5786
5702 5707 5710 5714 5718 5721 5724 5727 5730 5733 5736 5738 5741 5743 5746 5749 5752 5755 5757 5759 5761 5764 5766 5767 5769 5771 5772 5774 5775 5776 5777 5778 5779 5780 5780 5781 5781 5781 5781 5781 5780 5780 5779
5692 5696 5700 5704 5707 5711 5714 5717 5720 5723 5726 5728 5731 5733 5736 5738 5741 5745 5748 5750 5752 5754 5756 5757 5759 5761 5762 5764 5765 5766 5768 5769 5770 5771 5772 5772 5773 5773 5773 5773 5773 5772 5771
5681 5685 5689 5693 5697 5700 5704 5706 5709 5712 5715 5718 5721 5723 5725 5728 5730 5734 5737 5740 5742 5744 5745 5747 5749 5750 5752 5753 5755 5756 5758 5759 5760 5761 5763 5764 5764 5764 5764 5764 5764 5764 5763
5671 5675 5679 5683 5686 5690 5693 5696 5699 5702 5704 5707 5710 5712 5715 5717 5719 5722 5725 5728 5731 5733 5735 5736 5738 5740 5741 5743 5744 5746 5747 5748 5750 5751 5753 5754 5755 5755 5755 5755 5755 5755 5755
5660 5664 5668 5672 5675 5679 5682 5685 5688 5691 5694 5696 5699 5701 5703 5706 5708 5710 5713 5716 5719 5722 5724 5726 5727 5729 5730 5732 5734 5735 5737 5738 5739 5741 5742 5743 5744 5745 5746 5746 5746 5746 5745
5649 5653 5657 5661 5665 5668 5671 5674 5677 5680 5682 5685 5687 5689 5692 5694 5696 5699 5702 5704 5707 5710 5713 5715 5716 5718 5719 5721 5723 5724 5726 5727 5729 5730 5731 5732 5733 5734 5735 5735 5736 5736 5735
5638 5641 5645 5650 5654 5657 5660 5663 5666 5668 5671 5673 5676 5678 5680 5682 5685 5687 5690 5692 5695 5698 5701 5703 5705 5706 5708 5710 5711 5713 5714 5716 5717 5718 5720 5720 5721 5723 5724 5724 5725 5725 5725
5626 5630 5634 5638 5642 5646 5649 5651 5654 5657 5659 5662 5664 5666 5669 5671 5673 5676 5678 5681 5683 5686 5689 5692 5693 5695 5696 5698 5699 5701 5703 5704 5706 5707 5708 5709 5710 5711 5712 5713 5713 5713 5713
5614 5618 5622 5627 5631 5634 5637 5640 5643 5645 5648 5650 5652 5655 5657 5659 5662 5664 5666 5668 5671 5673 5676 5679 5681 5683 5684 5686 5688 5689 5691 5692 5694 5695 5696 5697 5697 5698 5699 5700 5700 5701 5701
5603 5607 5611 5615 5619 5623 5626 5629 5631 5634 5636 5638 5641 5643 5645 5647 5650 5652 5654 5656 5658 5660 5662 5666 5668 5670 5672 5673 5675 5677 5678 5680 5681 5682 5683 5684 5685 5685 5686 5687 5687 5688 5689
5591 5594 5599 5603 5607 5611 5614 5617 5620 5622 5624 5627 5629 5631 5633 5635 5637 5639 5641 5643 5645 5647 5649 5652 5655 5657 5659 5660 5662 5664 5665 5667 5668 5670 5670 5671 5672 5672 5673 5674 5674 5675 5676
5578 5582 5586 5591 5595 5598 5602 5605 5608 5610 5613 5615 5617 5619 5621 5623 5625 5627 5629 5630 5632 5634 5636 5638 5641 5643 5645 5647 5649 5651 5652 5654 5655 5656 5657 5658 5658 5659 5660 5661 5662 5663 5663
5566 5569 5573 5578 5582 5586 5590 5593 5596 5598 5600 5602 5605 5607 5609 5611 5613 5615 5617 5618 5620 5622 5624 5625 5628 5630 5632 5634 5635 5637 5638 5640 5642 5643 5643 5644 5645 5645 5646 5646 5647 5648 5649
5554 5557 5561 5565 5569 5573 5577 5581 5583 5586 5588 5590 5593 5595 5597 5599 5601 5603 5605 5606 5608 5610 5611 5613 5615 5617 5619 5620 5621 5622 5624 5626 5628 5630 5629 5630 5630 5631 5631 5632 5633 5634 5634
5542 5545 5550 5554 5557 5561 5564 5568 5571 5574 5576 5578 5581 5583 5585 5587 5589 5591 5593 5595 5596 5598 5599 5601 5603 5604 5605 5607 5608 5610 5610 5611 5613 5613 5613 5615 5616 5616 5617 5617 5618 5619 5619
5531 5534 5537 5541 5544 5548 5552 5556 5559 5562 5564 5567 5569 5571 5573 5575 5577 5579 5581 5583 5584 5586 5587 5589 5590 5591 5591 5592 5594 5595 5595 5596 5598 5598 5598 5600 5601 5601 5602 5602 5603 5604 5605
5519 5522 5526 5529 5533 5537 5540 5544 5547 5550 5553 5555 5557 5559 5561 5563 5565 5567 5569 5571 5572 5573 5574 5575 5577 5577 5578 5579 5580 5580 5581 5582 5584 5585 5584 5585 5586 5586 5587 5587 5588 5589 5590
5508 5511 5514 5518 5522 5525 5529 5532 5534 5538 5541 5543 5545 5547 5549 5551 5552 5554 5556 5558 5559 5561 5562 5563 5564 5564 5565 5566 5566 5567 5567 5568 5569 5571 5571 5570 5570 5570 5573 5574 5573 5573 5574